Location: Milano
(45.4670°N, 9.2000°E)
Time: 20:27:41
(UTC+02:00)

ISS - Pass Details

Date: 20 May 2021
Orbit: 417 x 422 km, 51.6° (Epoch: 14 June)

Event Time Altitude Azimuth Distance (km) Brightness Sun altitude
Rises 01:18:48 0° 298° (WNW) 2,371 0.4 -24.6°
Reaches altitude 10° 01:20:57 10° 305° (NW) 1,506 -0.5 -24.6°
Enters shadow 01:22:58 30° 325° (NW) 780 -2.0 -24.5°
